Weather History for Cadillac, MI

Change the Weather History Date:

Sunday, May 26, 2013

  Actual Average Record
Temperature  
Mean Temperature 49 °F -  
Max Temperature 67 °F 67 °F 85 °F (1977)
Min Temperature 31 °F 42 °F 21 °F (1954)
Degree Days  
Heating Degree Days 16    
Moisture  
Dew Point 33 °F    
Average Humidity 55    
Maximum Humidity 92    
Minimum Humidity 24    
Precipitation  
Precipitation 0.00 in - - ()
Sea Level Pressure  
Sea Level Pressure 30.28 in    
Wind  
Wind Speed 1 mph (SE)    
Max Wind Speed 8 mph    
Max Gust Speed -    
Visibility 10 miles    
Events      
Averages and records for this station are not official NWS values.
T = Trace of Precipitation, MM = Missing Value Source: NWS Daily Summary

Daily Weather History Graph

Daily Weather History Graph

Search for Another Location

Airport:

Trip Planner

Search our weather history database for the weather conditions in past years. The results will help you decide how hot, cold, wet, or windy it might be!

Date:

Astronomy

May. 26, 2013 Rise Set
Actual Time 6:04 AM EDT 9:13 PM EDT
Civil Twilight 5:29 AM EDT 9:48 PM EDT
Nautical Twilight 4:44 AM EDT 10:33 PM EDT
Astronomical Twilight 3:49 AM EDT 11:28 PM EDT
Moon 10:59 PM EDT (5/26) 7:33 AM EDT (5/26)
Length of Visible Light 16h 19m
Length of Day
15h 09m
Waning Gibbous, 97% of the Moon is Illuminated
May 26
Waning Gibbous
May 31
Last Quarter
Jun 8
New
Jun 16
First Quarter
Jun 23
Full

Hourly Weather History & Observations

Time (EDT) Temp. Windchill Dew Point Humidity Pressure Visibility Wind Dir Wind Speed Gust Speed Precip Events Conditions
12:14 AM 43.2 °F - 33.8 °F 70% 30.31 in 10.0 mi Calm Calm - N/A   Clear
12:35 AM 41.2 °F - 34.0 °F 76% 30.31 in 10.0 mi Calm Calm - N/A   Clear
12:55 AM 39.6 °F - 33.4 °F 79% 30.31 in 10.0 mi Calm Calm - N/A   Clear
1:14 AM 38.7 °F - 34.3 °F 84% 30.31 in 10.0 mi Calm Calm - N/A   Clear
1:35 AM 38.7 °F - 34.9 °F 86% 30.31 in 10.0 mi Calm Calm - N/A   Clear
1:55 AM 37.9 °F - 34.5 °F 87% 30.30 in 10.0 mi Calm Calm - N/A   Clear
2:14 AM 37.0 °F - 33.8 °F 88% 30.30 in 10.0 mi Calm Calm - N/A   Clear
2:35 AM 36.1 °F - 33.3 °F 89% 30.30 in 10.0 mi Calm Calm - N/A   Clear
2:55 AM 36.1 °F - 33.4 °F 90% 30.30 in 10.0 mi Calm Calm - N/A   Clear
3:14 AM 36.1 °F - 33.4 °F 90% 30.30 in 10.0 mi Calm Calm - N/A   Clear
3:35 AM 36.1 °F - 33.4 °F 90% 30.30 in 10.0 mi Calm Calm - N/A   Clear
3:55 AM 34.5 °F - 32.2 °F 91% 30.30 in 10.0 mi Calm Calm - N/A   Clear
4:14 AM 35.8 °F - 33.4 °F 91% 30.30 in 10.0 mi Calm Calm - N/A   Clear
4:35 AM 32.4 °F - 30.0 °F 91% 30.29 in 10.0 mi Calm Calm - N/A   Clear
4:55 AM 32.4 °F - 30.2 °F 92% 30.30 in 10.0 mi Calm Calm - N/A   Clear
5:15 AM 33.6 °F - 31.5 °F 92% 30.29 in 10.0 mi Calm Calm - N/A   Clear
5:35 AM 31.5 °F 28.1 °F 29.1 °F 91% 30.30 in 10.0 mi NW 3.5 mph - N/A   Clear
5:55 AM 31.5 °F 28.1 °F 29.1 °F 91% 30.30 in 10.0 mi NW 3.5 mph - N/A   Clear
6:15 AM 32.0 °F - 30.0 °F 92% 30.31 in 10.0 mi Calm Calm - N/A   Clear
6:35 AM 31.5 °F - 29.1 °F 91% 30.30 in 10.0 mi Calm Calm - N/A   Clear
6:55 AM 33.8 °F - 31.1 °F 90% 30.31 in 10.0 mi Calm Calm - N/A   Clear
7:15 AM 36.1 °F - 33.3 °F 89% 30.32 in 10.0 mi Calm Calm - N/A   Clear
7:35 AM 39.4 °F - 35.8 °F 87% 30.32 in 10.0 mi Calm Calm - N/A   Clear
7:55 AM 43.5 °F - 38.1 °F 81% 30.32 in 10.0 mi Calm Calm - N/A   Clear
8:15 AM 46.4 °F - 38.7 °F 74% 30.33 in 10.0 mi Calm Calm - N/A   Clear
8:35 AM 51.4 °F - 41.0 °F 68% 30.34 in 10.0 mi Calm Calm - N/A   Clear
8:55 AM 54.0 °F - 36.5 °F 52% 30.34 in 10.0 mi Calm Calm - N/A   Clear
9:15 AM 56.5 °F - 36.3 °F 47% 30.33 in 10.0 mi Calm Calm - N/A   Clear
9:35 AM 56.5 °F - 30.7 °F 38% 30.32 in 10.0 mi Calm Calm - N/A   Clear
9:55 AM 59.0 °F - 32.2 °F 36% 30.32 in 10.0 mi Calm Calm - N/A   Clear
10:15 AM 59.0 °F - 30.4 °F 34% 30.32 in 10.0 mi North 3.5 mph - N/A   Clear
10:35 AM 59.0 °F - 29.1 °F 32% 30.32 in 10.0 mi Calm Calm - N/A   Clear
10:55 AM 59.7 °F - 26.2 °F 28% 30.31 in 10.0 mi Calm Calm - N/A   Clear
11:15 AM 61.7 °F - 31.3 °F 32% 30.31 in 10.0 mi WNW 3.5 mph - N/A   Clear
11:35 AM 61.7 °F - 30.2 °F 30% 30.31 in 10.0 mi SE 3.5 mph - N/A   Clear
11:54 AM 62.2 °F - 31.5 °F 31% 30.31 in 10.0 mi Calm Calm - N/A   Clear
12:15 PM 63.3 °F - 31.8 °F 31% 30.31 in 10.0 mi SE 5.8 mph - N/A   Clear
12:35 PM 63.1 °F - 31.1 °F 30% 30.30 in 10.0 mi NE 8.1 mph - N/A   Clear
12:54 PM 62.8 °F - 28.8 °F 28% 30.30 in 10.0 mi SE 3.5 mph - N/A   Clear
1:15 PM 64.0 °F - 30.6 °F 28% 30.30 in 10.0 mi Calm Calm - N/A   Clear
1:35 PM 64.6 °F - 30.2 °F 28% 30.29 in 10.0 mi Calm Calm - N/A   Clear
1:54 PM 64.0 °F - 28.6 °F 26% 30.30 in 10.0 mi North 3.5 mph - N/A   Clear
2:15 PM 64.2 °F - 28.4 °F 26% 30.29 in 10.0 mi Calm Calm - N/A   Clear
2:35 PM 66.6 °F - 30.9 °F 26% 30.28 in 10.0 mi WSW 3.5 mph - N/A   Clear
2:54 PM 65.8 °F - 31.3 °F 28% 30.27 in 10.0 mi SE 4.6 mph - N/A   Clear
3:15 PM 65.3 °F - 31.8 °F 29% 30.27 in 10.0 mi East 3.5 mph - N/A   Clear
3:35 PM 67.1 °F - 31.3 °F 26% 30.26 in 10.0 mi Calm Calm - N/A   Clear
3:55 PM 66.2 °F - 32.7 °F 29% 30.26 in 10.0 mi South 5.8 mph - N/A   Clear
4:15 PM 66.6 °F - 32.9 °F 29% 30.25 in 10.0 mi South 4.6 mph - N/A   Clear
4:35 PM 66.6 °F - 31.3 °F 27% 30.24 in 10.0 mi Calm Calm - N/A   Clear
4:55 PM 65.1 °F - 32.2 °F 29% 30.24 in 10.0 mi SSE 5.8 mph - N/A   Clear
5:15 PM 64.8 °F - 32.0 °F 29% 30.23 in 10.0 mi SSW 4.6 mph - N/A   Clear
5:35 PM 64.8 °F - 32.4 °F 30% 30.23 in 10.0 mi SSW 6.9 mph - N/A   Clear
5:55 PM 64.8 °F - 31.6 °F 29% 30.23 in 10.0 mi SSE 5.8 mph - N/A   Clear
6:15 PM 64.6 °F - 30.9 °F 28% 30.23 in 10.0 mi SSE 5.8 mph - N/A   Clear
6:35 PM 64.9 °F - 28.9 °F 26% 30.22 in 10.0 mi SSE 6.9 mph - N/A   Clear
6:55 PM 64.4 °F - 26.8 °F 24% 30.22 in 10.0 mi South 5.8 mph - N/A   Clear
7:15 PM 64.0 °F - 30.4 °F 28% 30.21 in 10.0 mi SSE 4.6 mph - N/A   Clear
7:34 PM 64.0 °F - 31.1 °F 29% 30.21 in 10.0 mi South 3.5 mph - N/A   Clear
7:55 PM 62.8 °F - 31.6 °F 31% 30.20 in 10.0 mi SSE 3.5 mph - N/A   Clear
8:15 PM 61.7 °F - 32.0 °F 33% 30.20 in 10.0 mi Calm Calm - N/A   Clear
8:34 PM 62.1 °F - 32.5 °F 33% 30.20 in 10.0 mi Calm Calm - N/A   Clear
8:55 PM 59.0 °F - 38.8 °F 47% 30.20 in 10.0 mi Calm Calm - N/A   Clear
9:15 PM 56.5 °F - 41.0 °F 56% 30.21 in 10.0 mi Calm Calm - N/A   Clear
9:34 PM 56.5 °F - 40.1 °F 54% 30.21 in 10.0 mi East 6.9 mph - N/A   Clear
9:55 PM 56.5 °F - 39.0 °F 52% 30.21 in 10.0 mi ENE 8.1 mph - N/A   Clear
10:15 PM 56.5 °F - 37.4 °F 49% 30.21 in 10.0 mi East 5.8 mph - N/A   Clear
10:34 PM 53.1 °F - 38.3 °F 57% 30.22 in 10.0 mi ESE 4.6 mph - N/A   Clear
10:55 PM 51.4 °F - 40.1 °F 65% 30.23 in 10.0 mi ESE 6.9 mph - N/A   Clear
11:15 PM 51.4 °F - 41.2 °F 68% 30.23 in 10.0 mi ESE 6.9 mph - N/A   Clear
11:34 PM 51.4 °F - 42.4 °F 71% 30.24 in 10.0 mi East 5.8 mph - N/A   Clear
11:55 PM 51.1 °F - 41.9 °F 71% 30.24 in 10.0 mi East 5.8 mph - N/A   Clear